Location: Banff
(51.1667°N, 115.5667°W)
Time: 05:47:27
(UTC+00:00)

Tiros 1 - All Passes

Search period start: 27 November 2020 00:00
Search period end: 07 December 2020 00:00
Orbit: 630 x 664 km, 48.4° (Epoch: 26 November)

Date Brightness Start Highest point End Pass type
(mag) Time Alt. Az. Time Alt. Az. Time Alt. Az.
27 Nov - 01:26:59 10° WSW 01:31:39 54° SSE 01:36:18 10° E visible
27 Nov - 03:08:54 10° W 03:13:38 61° S 03:18:19 10° ESE visible
27 Nov - 04:51:08 10° W 04:55:25 34° SSW 04:59:39 10° SE visible
27 Nov - 06:35:40 10° SW 06:36:35 10° SW 06:37:28 10° SSW night (unlit)
27 Nov - 22:32:10 10° SSE 22:34:25 13° SE 22:36:40 10° ESE daylight
28 Nov - 00:11:16 10° SW 00:15:42 38° SSE 00:20:08 10° E visible
28 Nov - 01:52:49 10° WSW 01:57:34 63° S 02:02:16 10° E visible
28 Nov - 03:34:53 10° W 03:39:31 50° SSW 03:44:05 10° ESE visible
28 Nov - 05:17:30 10° W 05:21:02 21° SW 05:24:33 10° SSE night (unlit)
28 Nov - 22:56:08 10° SSW 22:59:55 23° SSE 23:03:42 10° E daylight
29 Nov - 00:36:50 10° WSW 00:41:30 52° SSE 00:46:09 10° E visible
29 Nov - 02:18:45 10° W 02:23:30 62° S 02:28:11 10° ESE visible
29 Nov - 04:00:57 10° W 04:05:18 35° SSW 04:09:35 10° SE visible
29 Nov - 05:44:57 10° WSW 05:46:30 11° SW 05:48:02 10° SSW night (unlit)
29 Nov - 21:42:23 10° SSE 21:44:19 12° SE 21:46:16 10° ESE daylight
29 Nov - 23:21:10 10° SW 23:25:34 36° SSE 23:29:58 10° E daylight
30 Nov - 01:02:39 10° WSW 01:07:24 62° S 01:12:08 10° E visible
30 Nov - 02:44:43 10° W 02:49:22 51° SSW 02:53:59 10° ESE visible
30 Nov - 04:27:16 10° W 04:30:56 22° SW 04:34:34 10° SSE visible
30 Nov - 22:06:07 10° SSW 22:09:48 22° SE 22:13:29 10° E daylight
30 Nov - 23:46:42 10° WSW 23:51:22 51° SSE 23:56:01 10° E daylight
01 Dec - 01:28:35 10° W 01:33:20 63° S 01:38:03 10° ESE visible
01 Dec - 03:10:46 10° W 03:15:10 37° SSW 03:19:31 10° SE visible
01 Dec - 04:54:27 10° WSW 04:56:25 12° SW 04:58:22 10° SSW visible
01 Dec - 20:52:40 10° SSE 20:54:13 11° SE 20:55:46 10° ESE daylight
01 Dec - 22:31:05 10° SW 22:35:26 35° SSE 22:39:48 10° E daylight
02 Dec - 00:12:30 10° WSW 00:17:15 62° S 00:21:59 10° E visible
02 Dec - 01:54:33 10° W 01:59:14 53° SSW 02:03:52 10° ESE visible
02 Dec - 03:37:02 10° W 03:40:50 24° SSW 03:44:35 10° SSE visible
02 Dec - 21:16:06 10° SSW 21:19:41 21° SE 21:23:16 10° E daylight
02 Dec - 22:56:35 10° WSW 23:01:13 50° SSE 23:05:52 10° E daylight
03 Dec - 00:38:25 10° W 00:43:11 63° S 00:47:55 10° ESE visible
03 Dec - 02:20:35 10° W 02:25:02 38° SSW 02:29:27 10° SE visible
03 Dec - 04:04:02 10° WSW 04:06:19 13° SW 04:08:36 10° SSW visible
03 Dec - 20:03:10 10° SSE 20:04:08 11° SE 20:05:06 10° ESE daylight
03 Dec - 21:41:00 10° SW 21:45:18 33° SSE 21:49:37 10° E daylight
03 Dec - 23:22:21 10° WSW 23:27:06 61° S 23:31:50 10° E daylight
04 Dec - 01:04:24 10° W 01:09:05 54° SSW 01:13:44 10° ESE visible
04 Dec - 02:46:49 10° W 02:50:43 25° SSW 02:54:35 10° SSE visible
04 Dec - 20:26:07 10° S 20:29:34 20° SE 20:33:02 10° E daylight
04 Dec - 22:06:27 10° SW 22:11:05 48° SSE 22:15:42 10° E daylight
04 Dec - 23:48:15 10° W 23:53:01 64° S 23:57:46 10° ESE daylight
05 Dec - 01:30:25 10° W 01:34:54 40° SSW 01:39:21 10° SE visible
05 Dec - 03:13:39 10° WSW 03:16:13 14° SW 03:18:46 10° S visible
05 Dec - 20:50:55 10° SW 20:55:10 32° SSE 20:59:27 10° E daylight
05 Dec - 22:32:12 10° WSW 22:36:57 60° S 22:41:41 10° E daylight
06 Dec - 00:14:13 10° W 00:18:56 56° SSW 00:23:37 10° ESE visible
06 Dec - 01:56:36 10° W 02:00:36 26° SSW 02:04:33 10° SSE visible
06 Dec - 19:36:08 10° S 19:39:27 19° SE 19:42:47 10° E daylight
06 Dec - 21:16:19 10° SW 21:20:55 46° SSE 21:25:33 10° E daylight
06 Dec - 22:58:06 10° W 23:02:51 64° S 23:07:37 10° E daylight
